Вернуться в каталог

DECIMALSAT-1

АктивенНаукаSSO
NORAD 68457·PAYLOAD·🇮🇹 Italy
Это название спутника еще не подтверждено официальными источниками.

Запущен Mar 30, 2026 с Vandenberg Space Force Base

Loading…

Ближайшие Пролёты (ближайшие 24 часа)

TLE

СвежийSource: Space-Track

Эпоха: Sep 13, 2026, 19:59 UTC

1 68457U 26067AT  26256.83307989  .00009142  00000-0  41621-3 0  9992
2 68457  97.4643 214.4094 0003416  68.5398 291.6202 15.20914596 25418

Отслеживайте DECIMALSAT-1 в реальном времени с AllMySat

Download on the App Store